When you browse on this site, cookies collect data to enhance your experience and personalize the content and advertising you see.
Visit our Privacy Policy to learn more. By continuing to use the site, you agree to this use of cookies and data.
  • In Schweiz
  • Länderverzeichnis
  • Für 7 Tage
  • Wassertemperatur
  • Wetterkarte
  • Widgets
  • user-avatar
    Anmelden

    Stündliche Wetter Kandi

    Heute, 17 Februar, Montag

    Zeit Temperatur Niederschläge Wind Luftdruck Luftfeuchtigkeit
    00:00 +25°C° 0 mm 2 m/S 737 mmHg 9%
    01:00 +24°C° 0 mm 2 m/S 737 mmHg 10%
    02:00 +23°C° 0 mm 2 m/S 736 mmHg 11%
    03:00 +23°C° 0 mm 2 m/S 736 mmHg 11%
    04:00 +21°C° 0 mm 2 m/S 736 mmHg 12%
    05:00 +20°C° 0 mm 2 m/S 737 mmHg 13%
    06:00 +20°C° 0 mm 2 m/S 737 mmHg 14%
    07:00 +24°C° 0 mm 2 m/S 737 mmHg 12%
    08:00 +27°C° 0 mm 3 m/S 738 mmHg 10%
    09:00 +30°C° 0 mm 3 m/S 739 mmHg 8%
    10:00 +34°C° 0 mm 3 m/S 738 mmHg 7%
    11:00 +37°C° 0 mm 3 m/S 737 mmHg 6%
    12:00 +39°C° 0 mm 3 m/S 737 mmHg 5%
    13:00 +40°C° 0 mm 2 m/S 736 mmHg 5%
    14:00 +41°C° 0 mm 2 m/S 735 mmHg 5%
    15:00 +42°C° 0 mm 2 m/S 734 mmHg 4%
    16:00 +39°C° 0 mm 1 m/S 734 mmHg 5%
    17:00 +36°C° 0 mm 1 m/S 734 mmHg 6%
    18:00 +33°C° 0 mm 1 m/S 734 mmHg 7%
    19:00 +32°C° 0 mm 1 m/S 735 mmHg 8%
    20:00 +30°C° 0 mm 2 m/S 736 mmHg 8%
    21:00 +29°C° 0 mm 2 m/S 736 mmHg 9%
    22:00 +28°C° 0 mm 2 m/S 736 mmHg 9%
    23:00 +27°C° 0 mm 2 m/S 736 mmHg 10%

    Morgen, 18 Februar, Dienstag

    Zeit Temperatur Niederschläge Wind Luftdruck Luftfeuchtigkeit
    00:00 +26°C° 0 mm 2 m/S 736 mmHg 10%
    01:00 +25°C° 0 mm 2 m/S 736 mmHg 11%
    02:00 +24°C° 0 mm 2 m/S 736 mmHg 13%
    03:00 +24°C° 0 mm 2 m/S 736 mmHg 14%
    04:00 +23°C° 0 mm 1 m/S 736 mmHg 16%
    05:00 +22°C° 0 mm 1 m/S 736 mmHg 17%
    06:00 +21°C° 0 mm 1 m/S 737 mmHg 18%
    07:00 +24°C° 0 mm 1 m/S 737 mmHg 16%
    08:00 +27°C° 0 mm 2 m/S 738 mmHg 14%
    09:00 +30°C° 0 mm 3 m/S 739 mmHg 12%
    10:00 +34°C° 0 mm 3 m/S 738 mmHg 10%
    11:00 +37°C° 0 mm 3 m/S 738 mmHg 8%
    12:00 +40°C° 0 mm 3 m/S 737 mmHg 7%
    13:00 +41°C° 0 mm 2 m/S 736 mmHg 6%
    14:00 +42°C° 0 mm 2 m/S 736 mmHg 6%
    15:00 +43°C° 0 mm 1 m/S 735 mmHg 5%
    16:00 +40°C° 0 mm 1 m/S 735 mmHg 6%
    17:00 +37°C° 0 mm 2 m/S 735 mmHg 7%
    18:00 +35°C° 0 mm 2 m/S 735 mmHg 9%
    19:00 +32°C° 0 mm 2 m/S 735 mmHg 10%
    20:00 +30°C° 0 mm 2 m/S 736 mmHg 11%
    21:00 +29°C° 0 mm 2 m/S 737 mmHg 12%
    22:00 +28°C° 0 mm 2 m/S 736 mmHg 13%
    23:00 +27°C° 0 mm 2 m/S 736 mmHg 14%

    übermorgen, 19 Februar, Mittwoch

    Zeit Temperatur Niederschläge Wind Luftdruck Luftfeuchtigkeit
    00:00 +26°C° 0 mm 2 m/S 736 mmHg 15%
    01:00 +26°C° 0 mm 2 m/S 736 mmHg 16%
    02:00 +25°C° 0 mm 2 m/S 736 mmHg 16%
    03:00 +24°C° 0 mm 2 m/S 735 mmHg 17%
    04:00 +23°C° 0 mm 1 m/S 736 mmHg 18%
    05:00 +22°C° 0 mm 1 m/S 736 mmHg 19%
    06:00 +21°C° 0 mm 1 m/S 736 mmHg 20%
    07:00 +25°C° 0 mm 1 m/S 737 mmHg 17%
    08:00 +28°C° 0 mm 2 m/S 738 mmHg 15%
    09:00 +31°C° 0 mm 2 m/S 738 mmHg 12%
    10:00 +35°C° 0 mm 2 m/S 738 mmHg 10%
    11:00 +37°C° 0 mm 3 m/S 737 mmHg 9%
    12:00 +40°C° 0 mm 3 m/S 737 mmHg 8%
    13:00 +41°C° 0 mm 2 m/S 736 mmHg 7%
    14:00 +41°C° 0 mm 2 m/S 735 mmHg 7%
    15:00 +42°C° 0 mm 2 m/S 734 mmHg 6%
    16:00 +40°C° 0 mm 2 m/S 734 mmHg 7%
    17:00 +37°C° 0 mm 2 m/S 734 mmHg 9%
    18:00 +34°C° 0 mm 1 m/S 734 mmHg 10%
    19:00 +32°C° 0 mm 2 m/S 734 mmHg 11%
    20:00 +31°C° 0 mm 2 m/S 735 mmHg 12%
    21:00 +29°C° 0 mm 2 m/S 735 mmHg 13%
    22:00 +28°C° 0 mm 2 m/S 735 mmHg 13%
    23:00 +27°C° 0 mm 2 m/S 735 mmHg 14%

    20 Februar, Donnerstag

    Zeit Temperatur Niederschläge Wind Luftdruck Luftfeuchtigkeit
    00:00 +27°C° 0 mm 2 m/S 735 mmHg 15%
    01:00 +26°C° 0 mm 2 m/S 735 mmHg 15%
    02:00 +26°C° 0 mm 2 m/S 735 mmHg 15%
    03:00 +25°C° 0 mm 2 m/S 735 mmHg 16%
    04:00 +24°C° 0 mm 2 m/S 735 mmHg 16%
    05:00 +23°C° 0 mm 2 m/S 735 mmHg 17%
    06:00 +22°C° 0 mm 1 m/S 736 mmHg 18%
    07:00 +25°C° 0 mm 2 m/S 736 mmHg 16%
    08:00 +28°C° 0 mm 3 m/S 737 mmHg 14%
    09:00 +31°C° 0 mm 3 m/S 737 mmHg 12%
    10:00 +34°C° 0 mm 3 m/S 737 mmHg 10%
    11:00 +37°C° 0 mm 3 m/S 736 mmHg 9%
    12:00 +40°C° 0 mm 3 m/S 736 mmHg 7%
    13:00 +42°C° 0 mm 3 m/S 735 mmHg 7%
    14:00 +41°C° 0 mm 2 m/S 734 mmHg 7%
    15:00 +42°C° 0 mm 2 m/S 734 mmHg 7%
    16:00 +40°C° 0 mm 2 m/S 734 mmHg 8%
    17:00 +37°C° 0 mm 2 m/S 734 mmHg 9%
    18:00 +34°C° 0 mm 1 m/S 734 mmHg 10%
    19:00 +34°C° 0 mm 2 m/S 734 mmHg 11%
    20:00 +31°C° 0 mm 2 m/S 735 mmHg 12%
    21:00 +29°C° 0 mm 2 m/S 735 mmHg 13%
    22:00 +29°C° 0 mm 2 m/S 735 mmHg 14%
    23:00 +28°C° 0 mm 2 m/S 735 mmHg 14%

    21 Februar, Freitag

    Zeit Temperatur Niederschläge Wind Luftdruck Luftfeuchtigkeit
    00:00 +27°C° 0 mm 2 m/S 735 mmHg 15%
    01:00 +26°C° 0 mm 2 m/S 735 mmHg 15%
    02:00 +26°C° 0 mm 2 m/S 735 mmHg 16%
    03:00 +25°C° 0 mm 2 m/S 735 mmHg 16%
    04:00 +24°C° 0 mm 2 m/S 735 mmHg 17%
    05:00 +23°C° 0 mm 1 m/S 735 mmHg 18%
    06:00 +22°C° 0 mm 1 m/S 735 mmHg 19%
    13:00 +42°C° 0 mm 2 m/S 735 mmHg 7%
    14:00 +42°C° 0 mm 2 m/S 734 mmHg 7%
    15:00 +43°C° 0 mm 2 m/S 733 mmHg 7%
    16:00 +41°C° 0 mm 2 m/S 733 mmHg 8%
    17:00 +38°C° 0 mm 2 m/S 733 mmHg 9%
    18:00 +36°C° 0 mm 2 m/S 733 mmHg 10%
    19:00 +34°C° 0 mm 2 m/S 734 mmHg 10%
    20:00 +32°C° 0 mm 2 m/S 734 mmHg 11%
    21:00 +30°C° 0 mm 2 m/S 735 mmHg 12%
    22:00 +29°C° 0 mm 2 m/S 735 mmHg 12%
    23:00 +29°C° 0 mm 2 m/S 735 mmHg 13%

    22 Februar, Samstag

    Zeit Temperatur Niederschläge Wind Luftdruck Luftfeuchtigkeit
    00:00 +28°C° 0 mm 2 m/S 735 mmHg 13%
    01:00 +27°C° 0 mm 2 m/S 735 mmHg 13%
    02:00 +26°C° 0 mm 2 m/S 735 mmHg 13%
    03:00 +26°C° 0 mm 2 m/S 734 mmHg 14%
    04:00 +25°C° 0 mm 2 m/S 735 mmHg 15%
    05:00 +24°C° 0 mm 1 m/S 735 mmHg 16%
    06:00 +23°C° 0 mm 1 m/S 736 mmHg 16%
    07:00 +26°C° 0 mm 1 m/S 736 mmHg 15%
    08:00 +29°C° 0 mm 2 m/S 737 mmHg 13%
    09:00 +32°C° 0 mm 2 m/S 737 mmHg 11%
    10:00 +36°C° 0 mm 3 m/S 737 mmHg 10%
    11:00 +39°C° 0 mm 3 m/S 736 mmHg 8%
    12:00 +43°C° 0 mm 3 m/S 736 mmHg 7%
    13:00 +43°C° 0 mm 3 m/S 735 mmHg 7%
    14:00 +43°C° 0 mm 2 m/S 734 mmHg 7%
    15:00 +45°C° 0 mm 2 m/S 733 mmHg 7%
    16:00 +41°C° 0 mm 2 m/S 733 mmHg 8%
    17:00 +39°C° 0 mm 2 m/S 733 mmHg 9%
    18:00 +36°C° 0 mm 1 m/S 734 mmHg 11%
    19:00 +34°C° 0 mm 1 m/S 734 mmHg 11%
    20:00 +34°C° 0 mm 2 m/S 735 mmHg 12%
    21:00 +31°C° 0 mm 2 m/S 735 mmHg 13%
    22:00 +30°C° 0 mm 2 m/S 735 mmHg 14%
    23:00 +30°C° 0 mm 2 m/S 735 mmHg 14%
    Mehr zeigen